Dewpoint
1 2 0 -1 0 -0 -4 0 1 -0 0 -2 -5 -5 -5 -4 -5 -5 -3 0 2 2 1 1 2 3 3 3 3 2 -2 -2 -4 -6 -5 -4 -5 -5 -4 -5 -5 -6 -7 -7
3 2 2 1 1 -0 -0 -2 -4 -3 -3 -6 -5 -6 -6 -5 -5 -4 -4 -4 -3 -0 2 2 3 3 3 3 3 1 -2 -3 -5 -6 -5 -5 -4 -2 -6 -8 -8 -7 -8 -7
5 2 1 1 -0 -0 -0 -1 -2 -2 -4 -5 -2 -3 -5 -5 -5 -4 -3 -3 -3 -0 2 3 4 3 3 3 2 -0 -2 -3 -7 -6 -6 -4 -3 -2 -8 -7 -8 -8 -8 -8
4 2 -0 -0 -3 -5 -2 -3 -4 -3 -2 -3 -4 -1 -1 -2 -2 -2 -1 -1 -1 -1 -0 2 3 3 3 3 1 -2 -2 -5 -7 -6 -5 -3 -2 -6 -8 -9 -8 -9 -9 -8
3 4 1 -2 -4 -2 -4 -2 -3 -2 -3 -3 -4 -2 1 -1 -1 -2 -2 -2 -1 -2 -2 -1 -0 1 2 2 -1 -2 -5 -6 -6 -6 -4 -2 -5 -8 -8 -9 -10 -10 -9 -8
4 4 1 1 -3 -4 -4 1 -1 -2 -1 -1 -2 1 2 -0 -1 -1 -1 -1 -1 -0 -0 -0 0 1 -0 -1 -3 -6 -6 -6 -5 -4 -2 -2 -6 -10 -9 -8 -9 -8 -8 -8
3 3 3 2 -4 -5 -1 1 -1 -2 -1 -1 1 1 -1 -1 -0 0 0 -0 -1 -0 0 0 0 -0 -2 -4 -5 -6 -5 -4 -3 -2 -2 -5 -10 -9 -8 -8 -10 -13 -7 -6
6 6 6 -3 -3 -3 2 -1 -2 -2 -2 -1 -1 1 1 1 1 0 -0 -0 0 1 -1 -2 -3 -3 -4 -5 -4 -3 -3 -2 -2 -2 -5 -10 -7 -8 -12 -14 -12 -7 -6 -5
4 4 2 -4 -3 -2 -3 -3 -2 -1 1 1 2 3 2 1 0 -2 -3 -2 -2 -1 -2 -4 -4 -4 -4 -3 -3 -2 -1 -0 -1 -7 -12 -15 -13 -14 -13 -11 -7 -7 -6 -6
1 -2 -1 -5 -4 -2 -1 1 2 3 3 3 3 2 1 -0 -2 -4 -5 -5 -5 -5 -5 -5 -5 -5 -5 -4 -3 -1 -1 -6 -9 -13 -16 -15 -14 -11 -8 -6 -6 -7 -5 -5
2 -1 2 3 3 3 3 3 3 3 2 1 2 -1 -1 -3 -4 -5 -5 -5 -5 -4 -4 -4 -3 -2 -2 -2 -3 -7 -10 -16 -15 -15 -15 -14 -13 -10 -8 -6 -6 -7 -9 -6
2 3 4 3 3 3 3 2 0 1 0 -1 -1 -2 -3 -3 -3 -2 -1 -1 -2 -1 -1 -1 -2 -5 -8 -12 -14 -16 -16 -14 -14 -14 -14 -13 -11 -10 -8 -6 -5 -6 -7 -7
4 3 2 2 1 1 1 0 0 0 1 0 -1 -1 -1 -1 -1 -1 -1 -1 -2 -4 -4 -6 -8 -10 -12 -12 -12 -12 -12 -13 -13 -12 -12 -11 -9 -8 -7 -6 -6 -6 -7 -7
3 2 1 2 2 2 1 1 1 -0 -1 -2 -2 -3 -3 -3 -3 -4 -4 -4 -4 -5 -8 -9 -9 -8 -7 -7 -8 -6 -6 -8 -10 -11 -9 -8 -7 -6 -5 -5 -7 -8 -8 -9
2 3 2 2 2 1 0 -1 -1 -1 -1 -2 -2 -2 -3 -3 -4 -4 -5 -5 -6 -8 -10 -9 -9 -9 -10 -10 -10 -9 -8 -6 -5 -5 -5 -5 -5 -4 -5 -5 -5 -6 -6 -7
1 1 1 1 1 -0 -1 -1 -2 -2 -2 -3 -3 -4 -5 -6 -6 -7 -8 -10 -11 -10 -10 -9 -8 -6 -6 -6 -6 -6 -6 -6 -4 -4 -4 -4 -4 -5 -5 -5 -5 -7 -7 -6
1 1 0 0 -0 -1 -1 -1 -2 -3 -3 -5 -9 -13 -14 -13 -12 -11 -11 -10 -9 -7 -4 -4 -5 -5 -5 -6 -7 -8 -12 -14 -12 -8 -6 -5 -5 -6 -5 -6 -7 -6 -5 -8
1 1 0 0 -1 -1 -2 -2 -3 -8 -12 -12 -11 -11 -11 -11 -11 -11 -14 -17 -16 -7 -5 -6 -7 -8 -9 -11 -16 -19 -16 -15 -15 -15 -15 -14 -12 -9 -6 -6 -6 -6 -6 -6
1 -0 -0 -1 -2 -2 -5 -9 -11 -10 -9 -9 -9 -10 -13 -17 -18 -18 -16 -15 -14 -11 -11 -9 -9 -10 -17 -23 -21 -20 -19 -17 -13 -11 -10 -10 -10 -10 -10 -9 -8 -6 -6 -6
-1 -1 -2 -2 -5 -10 -11 -9 -8 -9 -9 -9 -13 -16 -16 -16 -17 -17 -13 -11 -9 -9 -9 -13 -20 -26 -23 -21 -20 -17 -14 -12 -12 -13 -12 -11 -10 -9 -8 -8 -8 -7 -7 -6
-2 -5 -10 -11 -10 -9 -7 -7 -8 -9 -10 -13 -13 -14 -16 -19 -20 -19 -20 -14 -12 -13 -17 -23 -24 -23 -19 -18 -17 -15 -14 -13 -13 -13 -13 -12 -12 -10 -9 -9 -8 -8 -7 -7
-10 -10 -9 -9 -9 -9 -8 -8 -8 -10 -11 -12 -13 -15 -19 -21 -22 -20 -16 -14 -15 -20 -23 -21 -21 -20 -18 -17 -17 -16 -15 -15 -15 -14 -14 -14 -14 -13 -13 -12 -11 -11 -11 -10
-8 -8 -7 -7 -7 -7 -8 -9 -10 -11 -12 -13 -15 -19 -20 -21 -20 -18 -16 -17 -18 -20 -21 -18 -17 -18 -19 -18 -18 -17 -16 -16 -16 -16 -15 -15 -15 -15 -15 -14 -14 -13 -13 -13
-8 -6 -5 -5 -6 -7 -8 -10 -10 -11 -12 -15 -17 -18 -20 -20 -18 -17 -17 -17 -18 -18 -18 -17 -17 -17 -18 -18 -18 -18 -18 -17 -17 -17 -17 -17 -16 -16 -16 -16 -16 -15 -15 -14
-6 -5 -6 -7 -8 -9 -9 -11 -11 -12 -16 -19 -19 -18 -16 -14 -14 -15 -16 -17 -18 -17 -17 -17 -18 -18 -18 -18 -19 -19 -19 -19 -19 -18 -19 -18 -18 -18 -18 -17 -17 -17 -17 -17
-5 -6 -7 -8 -8 -9 -12 -18 -21 -20 -21 -22 -18 -18 -15 -14 -14 -15 -16 -17 -18 -18 -17 -18 -19 -19 -19 -19 -19 -20 -20 -20 -19 -19 -20 -19 -19 -19 -19 -19 -19 -19 -19 -19
-7 -8 -8 -8 -10 -16 -21 -23 -25 -25 -21 -16 -15 -17 -14 -14 -14 -16 -16 -17 -18 -18 -18 -19 -19 -19 -19 -20 -20 -20 -20 -20 -20 -20 -20 -20 -20 -19 -19 -19 -19 -19 -20 -20
Wind_Speed
3 5 5 1 5 7 5 6 7 7 6 10 1 3 5 14 8 5 6 9 23 35 39 37 37 33 30 30 33 31 28 22 20 13 14 17 15 12 16 21 20 21 16 14
2 5 7 4 8 7 6 3 2 5 6 3 11 15 13 12 13 5 2 6 11 10 29 34 35 32 29 29 30 32 29 24 17 15 23 16 13 10 13 15 20 19 19 20
3 4 6 6 7 5 6 5 3 5 7 5 8 11 15 13 11 12 5 3 7 7 4 19 28 26 27 30 31 32 29 23 22 23 21 17 13 14 14 16 18 21 23 24
2 3 2 8 4 3 4 3 7 9 10 11 11 22 27 23 19 17 12 9 8 7 7 7 13 18 23 28 30 28 25 25 24 22 18 13 11 12 13 18 22 20 24 21
4 4 5 8 3 3 3 4 5 8 7 11 10 14 17 15 13 12 11 12 13 10 10 12 18 19 21 26 27 27 26 25 19 15 12 8 4 13 17 26 20 20 20 19
2 4 6 6 2 4 4 2 6 13 9 10 10 4 3 12 13 15 13 11 11 12 9 8 13 15 19 24 24 23 21 14 10 8 4 4 9 21 22 20 23 24 23 22
2 2 7 6 6 2 6 6 7 9 10 12 4 2 7 12 11 5 4 6 9 11 7 1 9 18 26 27 25 22 14 15 12 5 6 7 16 21 22 24 26 25 16 21
3 2 5 7 4 6 6 11 10 9 8 8 7 8 11 13 10 4 3 3 2 3 4 11 14 16 22 22 18 18 14 5 3 8 7 15 19 22 22 21 17 13 17 19
6 5 8 6 12 12 10 9 6 7 9 7 10 11 12 10 6 7 5 4 2 2 3 7 8 8 12 10 6 5 8 14 9 7 16 19 19 18 17 16 14 14 16 18
5 2 6 13 7 12 16 15 10 11 8 7 11 8 9 7 7 6 5 4 4 5 7 6 5 5 6 9 13 16 8 6 11 17 16 15 16 14 16 18 20 19 16 17
2 4 19 18 18 16 16 13 12 10 7 10 5 11 6 7 7 6 6 7 7 8 8 6 6 6 4 3 3 5 10 13 14 15 15 15 16 17 17 18 20 20 20 22
4 3 17 10 15 10 12 13 12 9 9 10 8 10 6 8 8 7 7 8 9 10 8 5 4 5 9 12 14 15 15 15 15 15 16 17 19 19 15 18 20 23 23 21
7 12 20 19 15 11 13 13 10 8 9 9 10 8 8 10 12 12 9 8 9 10 9 9 9 10 12 13 14 16 16 16 17 18 19 20 20 21 23 23 24 26 25 21
17 23 17 8 13 11 11 12 11 14 15 15 16 17 17 16 15 14 13 10 7 7 8 9 10 11 13 15 18 20 23 25 25 24 23 24 25 26 27 30 32 26 22 21
11 11 25 24 17 13 13 14 16 18 18 16 14 14 12 12 10 6 2 4 7 10 8 9 12 14 16 16 16 18 20 24 26 29 30 32 32 33 31 30 33 33 34 31
23 22 19 16 15 17 19 19 20 17 13 11 8 5 3 2 1 2 6 8 9 10 10 10 10 12 13 16 20 23 23 24 25 28 30 33 36 39 39 39 38 37 36 33
25 20 20 22 21 19 18 17 13 10 8 5 5 4 4 4 4 4 6 8 10 9 9 11 12 15 20 25 26 30 33 34 33 31 30 32 34 37 39 38 41 41 39 33
16 21 17 20 22 20 16 12 10 8 7 8 8 7 7 7 10 10 12 13 10 8 9 15 20 24 27 28 30 31 32 35 36 36 36 36 37 37 36 38 43 39 35 33
20 22 24 21 17 14 13 11 10 10 9 9 8 8 8 9 10 11 12 11 12 15 18 23 27 30 31 30 30 31 32 33 32 31 33 35 37 37 36 37 37 30 35 37
23 20 19 19 15 12 13 11 10 10 9 7 6 7 7 9 11 11 11 12 13 17 21 27 29 28 28 29 29 29 26 27 32 32 29 29 29 34 36 34 35 36 39 35
20 19 18 17 15 13 11 9 8 8 6 4 4 7 8 9 10 12 13 14 18 22 24 25 26 27 28 28 28 26 25 25 28 29 27 28 27 23 19 15 17 22 21 17
18 18 16 14 12 11 10 8 6 4 1 3 5 8 10 11 13 13 14 16 20 23 23 24 24 25 25 25 25 24 24 24 24 25 24 24 24 23 21 19 16 14 13 10
17 15 13 11 10 9 8 6 3 1 3 6 10 13 14 14 15 16 17 19 21 22 22 21 23 25 25 25 24 24 23 24 24 24 23 23 22 21 21 21 20 18 16 13
14 12 10 11 10 7 6 4 1 3 5 7 11 14 15 15 15 15 17 18 20 21 22 21 23 23 26 25 24 24 24 23 25 25 24 23 22 22 22 22 20 19 17 16
13 12 13 13 11 8 5 7 5 6 7 9 12 12 13 15 16 18 20 19 19 20 21 21 21 20 23 24 25 23 23 24 24 24 23 23 22 22 21 21 20 19 18 16
15 15 16 14 8 5 3 2 5 8 10 11 12 12 11 15 17 20 21 21 19 18 19 21 21 21 21 22 23 23 23 22 22 23 22 23 22 22 21 20 19 19 18 18
14 10 10 8 4 1 3 6 8 8 11 12 13 12 11 15 19 21 21 21 17 17 19 20 20 21 20 20 22 23 22 21 21 22 21 22 22 22 21 21 20 20 19 19
Wind_Direction
290 323 321 298 282 277 247 203 152 236 226 259 353 159 87 209 201 219 110 191 228 219 215 213 205 203 207 209 212 219 224 228 222 239 240 226 232 268 310 287 300 298 297 290
289 348 36 351 329 327 318 312 265 234 242 190 146 102 74 60 60 85 58 306 344 344 222 212 210 210 213 221 217 219 217 216 219 220 208 227 243 271 301 303 287 294 288 286
238 356 17 346 240 242 255 281 254 289 262 43 57 67 49 37 35 41 355 323 305 360 248 231 220 220 229 227 219 216 219 211 209 211 215 221 247 287 318 301 300 290 289 285
180 36 49 241 241 143 164 42 48 75 77 77 72 73 61 62 66 58 53 20 350 320 313 253 242 236 231 222 216 212 205 203 208 212 226 236 276 325 287 289 273 283 287 283
134 182 283 320 19 80 98 48 47 82 56 70 67 70 48 45 52 45 34 16 4 336 295 273 258 253 224 214 206 197 197 200 200 214 226 246 335 278 275 279 281 280 280 283
123 140 197 235 143 27 55 73 47 61 47 44 52 59 273 20 8 352 330 327 334 331 310 270 249 226 209 186 175 171 176 186 203 198 230 300 296 283 286 286 286 284 282 281
123 171 288 248 139 95 92 222 90 63 70 55 73 131 359 1 7 45 360 329 312 312 304 196 186 191 164 165 175 182 202 220 214 203 259 297 282 282 287 286 285 287 287 286
91 100 282 172 74 133 183 93 72 51 42 48 39 36 37 32 50 47 26 1 325 290 110 130 156 179 163 168 169 193 203 174 312 282 292 276 276 287 292 298 294 293 285 280
161 211 230 138 118 128 125 109 87 76 58 52 67 49 41 65 67 82 82 100 97 326 119 128 143 163 176 161 178 208 308 309 280 268 271 288 292 290 301 310 280 279 290 279
77 280 191 192 170 117 115 101 91 86 87 81 75 64 88 96 115 126 126 105 69 37 34 31 11 344 332 321 305 296 282 251 270 289 299 294 295 297 301 304 305 282 276 280
224 283 86 71 83 104 106 108 99 104 99 94 100 95 113 116 106 88 58 35 21 13 11 20 16 5 352 313 305 311 307 305 304 301 297 299 299 301 292 284 292 305 301 270
206 125 106 91 100 118 116 108 107 124 106 97 106 114 114 95 79 65 50 41 49 59 56 42 25 11 358 341 327 318 311 305 302 300 300 301 301 299 288 288 285 294 301 301
133 108 124 127 122 135 134 126 128 120 102 95 93 92 87 88 82 77 69 56 53 50 27 5 347 332 330 332 323 313 306 305 302 297 296 293 294 295 296 293 286 286 285 282
124 130 116 140 123 132 132 122 116 104 99 97 91 82 76 73 70 61 51 43 8 346 338 335 333 336 328 318 313 308 306 305 302 299 298 294 293 295 292 290 292 305 312 298
113 151 140 135 132 117 113 113 103 96 95 93 88 87 86 83 83 77 358 323 326 332 334 319 316 314 314 316 314 309 301 300 301 301 299 296 294 290 282 281 290 301 304 299
123 128 135 129 117 117 113 108 110 114 114 111 106 104 87 84 140 301 314 330 351 359 349 337 331 327 323 319 318 314 309 303 299 297 296 295 289 287 286 281 287 290 292 289
131 121 126 118 121 126 125 126 123 123 124 127 104 85 76 70 58 38 18 10 7 359 352 345 339 331 324 322 317 311 309 308 307 303 303 304 299 294 291 290 289 287 282 289
151 147 145 143 137 133 129 132 136 134 119 105 98 90 73 49 33 14 1 356 351 343 321 309 311 314 319 323 320 317 314 313 313 313 310 303 294 291 298 295 280 279 281 282
137 130 130 137 141 143 140 139 130 119 113 106 94 70 44 29 18 5 1 344 332 327 329 326 321 320 320 321 321 321 321 321 321 320 318 315 312 309 301 298 293 278 285 280
132 138 142 142 141 143 141 137 126 124 115 106 73 52 29 8 357 348 347 333 324 326 320 319 323 326 329 329 332 333 330 325 322 326 326 327 322 311 302 299 300 291 298 262
142 141 140 141 138 137 142 138 138 138 121 88 27 11 2 351 338 338 329 329 325 327 328 326 330 332 336 336 336 335 335 332 329 333 337 329 323 347 2 341 319 300 291 285
148 143 137 135 135 136 139 144 145 135 99 350 346 349 349 346 341 342 327 326 323 325 331 331 332 334 335 335 336 338 339 338 341 344 342 336 336 342 346 352 360 5 26 52
153 149 143 144 143 141 141 143 135 60 356 338 338 343 346 344 336 333 333 331 325 328 334 333 331 333 335 337 336 336 339 336 340 344 344 345 345 340 337 337 337 337 338 340
163 160 155 144 143 138 121 98 10 350 359 334 331 333 331 330 331 329 325 322 323 329 332 332 330 331 332 335 338 336 336 338 334 339 341 341 340 339 338 338 337 335 332 327
168 149 134 131 155 164 162 156 222 286 313 317 324 328 321 324 329 328 326 326 326 325 328 328 330 330 330 334 336 338 335 336 335 336 342 342 339 340 337 337 337 336 336 333
150 155 160 176 190 194 206 244 297 315 315 317 324 328 308 312 318 320 321 324 322 322 326 330 331 333 329 331 335 334 336 338 338 339 344 345 343 341 340 338 336 336 331 326
152 149 163 165 166 181 310 323 326 321 312 318 322 324 305 306 310 314 317 322 322 323 328 328 329 334 333 326 330 334 338 342 339 341 346 344 344 344 343 342 340 338 334 332
Height
1481 1480 1478 1477 1479 1478 1481 1486 1502 1495 1490 1479 1476 1475 1476 1476 1478 1480 1483 1487 1488 1484 1485 1486 1489 1494 1498 1502 1504 1506 1510 1512 1516 1520 1524 1527 1528 1527 1528 1526 1526 1524 1521 1519
1485 1480 1484 1485 1481 1478 1477 1474 1476 1478 1482 1471 1472 1472 1475 1477 1479 1481 1482 1483 1484 1484 1484 1484 1487 1490 1495 1497 1499 1502 1505 1509 1512 1516 1519 1521 1521 1522 1523 1522 1518 1517 1518 1514
1497 1494 1491 1505 1484 1477 1475 1473 1475 1485 1475 1469 1476 1475 1476 1477 1478 1481 1482 1483 1484 1485 1485 1486 1486 1488 1489 1491 1494 1497 1501 1504 1505 1507 1510 1510 1514 1515 1517 1515 1514 1513 1511 1509
1508 1507 1521 1483 1467 1467 1471 1474 1473 1475 1476 1477 1478 1479 1479 1479 1480 1481 1483 1483 1484 1485 1486 1486 1486 1485 1487 1489 1491 1494 1497 1499 1500 1502 1505 1506 1507 1511 1513 1512 1508 1506 1505 1503
1510 1513 1493 1476 1469 1470 1471 1482 1476 1477 1478 1478 1478 1479 1482 1483 1483 1483 1483 1484 1484 1484 1484 1484 1483 1483 1484 1486 1489 1490 1491 1494 1496 1499 1501 1501 1506 1508 1506 1502 1501 1500 1498 1497
1505 1512 1517 1484 1469 1467 1467 1495 1478 1477 1478 1479 1479 1494 1487 1485 1484 1484 1483 1482 1482 1482 1481 1480 1480 1479 1481 1485 1488 1490 1489 1491 1493 1494 1498 1502 1504 1503 1501 1498 1497 1493 1492 1491
1513 1516 1497 1470 1466 1467 1492 1496 1477 1478 1479 1480 1483 1485 1485 1484 1483 1482 1481 1481 1481 1480 1479 1478 1477 1476 1478 1478 1481 1486 1488 1486 1489 1494 1496 1496 1496 1494 1494 1493 1489 1488 1486 1486
1503 1508 1503 1465 1467 1478 1477 1475 1477 1478 1480 1480 1482 1482 1483 1483 1482 1480 1480 1480 1480 1479 1479 1479 1478 1478 1479 1480 1482 1480 1480 1487 1490 1491 1492 1491 1490 1489 1488 1486 1483 1482 1481 1480
1482 1486 1466 1464 1466 1468 1470 1473 1476 1477 1479 1479 1480 1482 1481 1482 1481 1480 1479 1479 1480 1479 1480 1481 1481 1481 1481 1482 1483 1485 1486 1487 1488 1488 1487 1486 1486 1484 1483 1481 1479 1477 1476 1476
1469 1463 1462 1462 1465 1467 1469 1472 1473 1475 1477 1478 1480 1480 1480 1481 1481 1480 1479 1480 1481 1482 1482 1483 1485 1485 1486 1485 1485 1484 1485 1485 1485 1484 1484 1482 1481 1480 1478 1477 1475 1474 1472 1470
1465 1461 1465 1467 1467 1467 1469 1471 1471 1474 1476 1477 1478 1479 1479 1481 1482 1483 1483 1483 1483 1483 1483 1484 1485 1485 1484 1483 1483 1483 1483 1483 1482 1481 1479 1478 1476 1475 1473 1472 1471 1469 1467 1464
1474 1461 1462 1469 1468 1468 1468 1471 1472 1474 1476 1478 1479 1480 1481 1482 1484 1484 1484 1484 1484 1485 1485 1485 1485 1485 1485 1485 1484 1482 1481 1480 1478 1477 1475 1474 1472 1469 1468 1465 1464 1463 1460 1458
1457 1458 1460 1466 1467 1468 1468 1472 1473 1475 1477 1478 1480 1482 1483 1483 1484 1485 1486 1487 1487 1487 1487 1487 1486 1486 1485 1483 1482 1480 1478 1476 1474 1473 1470 1468 1466 1463 1459 1459 1457 1455 1452 1450
1456 1457 1464 1466 1468 1470 1471 1473 1475 1477 1479 1481 1483 1484 1485 1486 1487 1488 1488 1489 1489 1489 1488 1487 1485 1484 1483 1481 1479 1476 1474 1472 1469 1467 1464 1462 1460 1456 1454 1450 1446 1444 1443 1441
1455 1455 1458 1463 1467 1471 1473 1475 1477 1479 1483 1486 1486 1486 1488 1489 1490 1490 1490 1490 1489 1488 1486 1485 1484 1482 1479 1477 1475 1472 1470 1467 1464 1461 1457 1455 1452 1449 1446 1442 1439 1436 1434 1432
1456 1458 1462 1465 1469 1473 1476 1478 1480 1483 1485 1487 1488 1488 1489 1488 1489 1489 1489 1488 1487 1485 1484 1482 1480 1478 1476 1473 1470 1467 1464 1461 1458 1453 1449 1446 1442 1439 1435 1432 1429 1427 1424 1422
1454 1461 1464 1469 1472 1475 1477 1480 1482 1484 1485 1487 1487 1487 1488 1488 1488 1488 1487 1487 1486 1484 1482 1479 1477 1475 1472 1468 1465 1461 1456 1452 1448 1444 1441 1437 1433 1429 1425 1421 1418 1414 1412 1412
1455 1459 1463 1467 1471 1475 1478 1480 1482 1484 1485 1486 1486 1487 1487 1487 1487 1487 1486 1484 1483 1481 1478 1476 1474 1470 1466 1463 1458 1453 1449 1444 1439 1435 1430 1426 1423 1419 1414 1410 1405 1403 1401 1400
1458 1461 1465 1470 1473 1475 1478 1480 1482 1483 1484 1485 1486 1487 1487 1486 1486 1485 1484 1481 1479 1476 1474 1471 1467 1464 1460 1456 1451 1446 1441 1436 1431 1427 1423 1417 1412 1408 1403 1399 1397 1390 1392 1391
1462 1465 1469 1471 1474 1476 1478 1480 1481 1483 1484 1485 1485 1485 1485 1485 1484 1483 1481 1478 1476 1474 1472 1466 1462 1457 1453 1448 1444 1440 1435 1431 1426 1421 1416 1411 1405 1399 1394 1391 1387 1383 1378 1376
1466 1469 1471 1473 1474 1477 1479 1481 1482 1482 1483 1484 1484 1484 1483 1483 1481 1479 1476 1474 1471 1469 1466 1461 1457 1452 1448 1443 1439 1435 1430 1426 1422 1416 1411 1406 1401 1395 1388 1383 1379 1375 1373 1372
1468 1470 1472 1474 1476 1477 1480 1481 1482 1482 1482 1482 1482 1481 1481 1479 1477 1475 1472 1471 1468 1464 1460 1455 1452 1449 1445 1440 1436 1431 1427 1422 1418 1413 1408 1404 1399 1394 1389 1383 1378 1374 1371 1367
1468 1470 1472 1475 1476 1478 1479 1480 1481 1481 1480 1479 1479 1478 1476 1475 1473 1471 1469 1466 1463 1459 1456 1452 1448 1445 1440 1437 1432 1427 1423 1419 1415 1411 1406 1402 1397 1393 1388 1383 1379 1375 1371 1368
1468 1470 1472 1475 1476 1477 1478 1479 1480 1479 1478 1477 1476 1474 1473 1471 1471 1469 1466 1462 1459 1456 1452 1449 1445 1441 1437 1433 1429 1425 1420 1416 1412 1408 1404 1400 1395 1390 1386 1382 1378 1374 1371 1368
1469 1471 1473 1475 1476 1477 1478 1479 1478 1478 1477 1476 1474 1472 1470 1468 1467 1464 1461 1458 1455 1452 1449 1445 1442 1438 1434 1430 1426 1422 1418 1414 1409 1405 1401 1396 1392 1388 1384 1380 1376 1372 1369 1366
1469 1470 1472 1473 1474 1475 1476 1476 1475 1474 1473 1473 1472 1470 1468 1465 1463 1461 1458 1455 1452 1449 1445 1441 1438 1434 1431 1427 1423 1419 1415 1411 1406 1402 1398 1394 1389 1385 1381 1377 1374 1370 1367 1363
1469 1470 1471 1472 1473 1473 1473 1473 1472 1471 1469 1468 1467 1466 1464 1462 1459 1456 1454 1452 1448 1444 1441 1438 1434 1431 1428 1424 1421 1416 1412 1408 1404 1400 1396 1392 1387 1383 1379 1375 1371 1367 1364 1360